PRIVATE WETTERSTATION BILLIGHEIM-ALLFELD                       ZURCK
Wetterdaten: Dienstag, 08.07.2014
Datum Zeit Temp. A. Temp. A. min Temp. A. max Feuchte A. Luftdruck Regen Wind Richtung Richtung Sonnenschein ET Solar Taupunkt Windchill Windben Empfang
08.07.2014 00:00 15,6 C 15,6 C 15,9 C 86 % 1011,1 hPa 0,8 l/m 4,8 km/h (1 Bft) S-SW 202 0 min 0,025 mm 0 W/m 13,3 C 15,6 C 11,3 km/h (2 Bft) 100 %
08.07.2014 00:20 15,3 C 15,3 C 15,9 C 87 % 1010,9 hPa 0,2 l/m 0,0 km/h (0 Bft) SO 130 0 min 0,000 mm 0 W/m 13,1 C 15,3 C 1,6 km/h (1 Bft) 98 %
08.07.2014 00:30 15,4 C 15,3 C 15,4 C 87 % 1010,5 hPa 0,4 l/m 1,6 km/h (1 Bft) SO 135 0 min 0,000 mm 0 W/m 13,2 C 15,4 C 4,8 km/h (1 Bft) 100 %
08.07.2014 00:40 15,3 C 15,3 C 15,4 C 87 % 1010,4 hPa 0,8 l/m 1,6 km/h (1 Bft) SO 135 0 min 0,000 mm 0 W/m 13,1 C 15,3 C 4,8 km/h (1 Bft) 100 %
08.07.2014 00:50 15,3 C 15,3 C 15,3 C 87 % 1010,5 hPa 0,4 l/m 0,0 km/h (0 Bft) SO 135 0 min 0,000 mm 0 W/m 13,1 C 15,3 C 1,6 km/h (1 Bft) 100 %
08.07.2014 01:00 15,4 C 15,3 C 15,4 C 87 % 1010,4 hPa 1,0 l/m 0,0 km/h (0 Bft) O 90 0 min 0,000 mm 0 W/m 13,2 C 15,4 C 1,6 km/h (1 Bft) 100 %
08.07.2014 01:10 15,4 C 15,4 C 15,4 C 87 % 1010,1 hPa 1,0 l/m 0,0 km/h (0 Bft) N 0 0 min 0,000 mm 0 W/m 13,2 C 15,4 C 0,0 km/h (0 Bft) 99 %
08.07.2014 01:20 15,4 C 15,3 C 15,4 C 87 % 1009,8 hPa 0,8 l/m 0,0 km/h (0 Bft) O 90 0 min 0,000 mm 0 W/m 13,2 C 15,4 C 4,8 km/h (1 Bft) 100 %
08.07.2014 01:30 15,4 C 15,3 C 15,4 C 87 % 1009,4 hPa 1,2 l/m 0,0 km/h (0 Bft) O 90 0 min 0,000 mm 0 W/m 13,2 C 15,4 C 3,2 km/h (1 Bft) 100 %
08.07.2014 01:40 15,4 C 15,4 C 15,4 C 87 % 1009,0 hPa 1,2 l/m 0,0 km/h (0 Bft) N 0 0 min 0,000 mm 0 W/m 13,2 C 15,4 C 0,0 km/h (0 Bft) 100 %
08.07.2014 01:50 15,4 C 15,3 C 15,4 C 87 % 1008,6 hPa 1,0 l/m 0,0 km/h (0 Bft) N 0 0 min 0,000 mm 0 W/m 13,2 C 15,4 C 0,0 km/h (0 Bft) 100 %
08.07.2014 02:00 15,3 C 15,3 C 15,4 C 87 % 1008,5 hPa 0,4 l/m 0,0 km/h (0 Bft) O 90 0 min 0,000 mm 0 W/m 13,1 C 15,3 C 3,2 km/h (1 Bft) 100 %
08.07.2014 02:10 15,3 C 15,3 C 15,4 C 87 % 1008,2 hPa 0,2 l/m 0,0 km/h (0 Bft) O 90 0 min 0,000 mm 0 W/m 13,1 C 15,3 C 3,2 km/h (1 Bft) 99 %
08.07.2014 02:20 15,3 C 15,3 C 15,4 C 87 % 1008,1 hPa 0,0 l/m 0,0 km/h (0 Bft) O 90 0 min 0,000 mm 0 W/m 13,1 C 15,3 C 1,6 km/h (1 Bft) 99 %
08.07.2014 02:30 15,2 C 15,2 C 15,4 C 87 % 1008,6 hPa 0,0 l/m 1,6 km/h (1 Bft) O 90 0 min 0,000 mm 0 W/m 13,0 C 15,2 C 8,0 km/h (2 Bft) 100 %
08.07.2014 02:40 15,2 C 15,2 C 15,3 C 87 % 1008,8 hPa 0,0 l/m 8,0 km/h (2 Bft) S-SO 157 0 min 0,000 mm 0 W/m 13,0 C 14,3 C 19,3 km/h (3 Bft) 99 %
08.07.2014 02:50 15,2 C 15,2 C 15,2 C 87 % 1008,6 hPa 0,0 l/m 4,8 km/h (1 Bft) S-SO 157 0 min 0,000 mm 0 W/m 13,0 C 15,2 C 9,7 km/h (2 Bft) 99 %
08.07.2014 03:00 15,2 C 15,2 C 15,2 C 87 % 1008,5 hPa 0,0 l/m 1,6 km/h (1 Bft) S-SO 157 0 min 0,025 mm 0 W/m 13,0 C 15,2 C 6,4 km/h (2 Bft) 100 %
08.07.2014 03:10 15,2 C 15,2 C 15,2 C 87 % 1008,3 hPa 0,0 l/m 0,0 km/h (0 Bft) N 0 0 min 0,000 mm 0 W/m 13,0 C 15,2 C 0,0 km/h (0 Bft) 100 %
08.07.2014 03:20 15,2 C 15,2 C 15,2 C 87 % 1008,2 hPa 0,0 l/m 1,6 km/h (1 Bft) S-SO 157 0 min 0,000 mm 0 W/m 13,0 C 15,2 C 4,8 km/h (1 Bft) 100 %
08.07.2014 03:30 15,2 C 15,2 C 15,2 C 87 % 1008,1 hPa 0,0 l/m 0,0 km/h (0 Bft) S-SO 157 0 min 0,000 mm 0 W/m 13,0 C 15,2 C 3,2 km/h (1 Bft) 100 %
08.07.2014 03:40 15,2 C 15,2 C 15,2 C 87 % 1008,1 hPa 0,0 l/m 0,0 km/h (0 Bft) S-SO 157 0 min 0,000 mm 0 W/m 13,0 C 15,2 C 3,2 km/h (1 Bft) 100 %
08.07.2014 03:50 15,2 C 15,2 C 15,2 C 87 % 1008,0 hPa 0,0 l/m 0,0 km/h (0 Bft) S-SO 157 0 min 0,000 mm 0 W/m 13,0 C 15,2 C 1,6 km/h (1 Bft) 99 %
08.07.2014 04:00 15,2 C 15,1 C 15,2 C 87 % 1007,7 hPa 0,0 l/m 0,0 km/h (0 Bft) N 0 0 min 0,000 mm 0 W/m 13,0 C 15,2 C 0,0 km/h (0 Bft) 100 %
08.07.2014 04:10 15,1 C 15,1 C 15,2 C 87 % 1007,7 hPa 0,0 l/m 0,0 km/h (0 Bft) S-SO 157 0 min 0,000 mm 0 W/m 13,0 C 15,1 C 3,2 km/h (1 Bft) 99 %
08.07.2014 04:20 15,1 C 15,1 C 15,1 C 87 % 1007,7 hPa 0,0 l/m 0,0 km/h (0 Bft) N 0 0 min 0,000 mm 0 W/m 13,0 C 15,1 C 0,0 km/h (0 Bft) 100 %
08.07.2014 04:30 15,1 C 15,1 C 15,1 C 87 % 1007,5 hPa 0,0 l/m 0,0 km/h (0 Bft) S-SO 157 0 min 0,000 mm 0 W/m 13,0 C 15,1 C 3,2 km/h (1 Bft) 100 %
08.07.2014 04:40 15,1 C 15,1 C 15,1 C 87 % 1007,5 hPa 0,0 l/m 0,0 km/h (0 Bft) S-SO 157 0 min 0,000 mm 0 W/m 13,0 C 15,1 C 1,6 km/h (1 Bft) 100 %
08.07.2014 04:50 15,1 C 15,1 C 15,1 C 87 % 1007,3 hPa 0,0 l/m 1,6 km/h (1 Bft) SO 135 0 min 0,000 mm 0 W/m 13,0 C 15,1 C 4,8 km/h (1 Bft) 100 %
08.07.2014 05:00 15,1 C 15,1 C 15,1 C 87 % 1007,3 hPa 0,0 l/m 1,6 km/h (1 Bft) O-SO 112 0 min 0,000 mm 0 W/m 13,0 C 15,1 C 4,8 km/h (1 Bft) 99 %
08.07.2014 05:10 15,1 C 15,1 C 15,2 C 87 % 1007,5 hPa 0,0 l/m 3,2 km/h (1 Bft) S 180 0 min 0,000 mm 0 W/m 13,0 C 15,1 C 8,0 km/h (2 Bft) 100 %
08.07.2014 05:20 15,2 C 15,1 C 15,2 C 87 % 1007,3 hPa 0,0 l/m 1,6 km/h (1 Bft) SO 135 0 min 0,000 mm 0 W/m 13,0 C 15,2 C 9,7 km/h (2 Bft) 100 %
08.07.2014 05:30 15,2 C 15,1 C 15,2 C 87 % 1007,4 hPa 0,0 l/m 0,0 km/h (0 Bft) SO 135 0 min 0,000 mm 0 W/m 13,0 C 15,2 C 1,6 km/h (1 Bft) 99 %
08.07.2014 05:40 15,2 C 15,1 C 15,2 C 87 % 1007,2 hPa 0,0 l/m 3,2 km/h (1 Bft) S 180 0 min 0,000 mm 0 W/m 13,0 C 15,2 C 8,0 km/h (2 Bft) 99 %
08.07.2014 05:50 15,1 C 15,1 C 15,2 C 87 % 1007,1 hPa 0,0 l/m 1,6 km/h (1 Bft) S-SO 157 0 min 0,000 mm 0 W/m 13,0 C 15,1 C 8,0 km/h (2 Bft) 100 %
08.07.2014 06:00 15,1 C 15,1 C 15,1 C 87 % 1007,1 hPa 0,0 l/m 3,2 km/h (1 Bft) SO 135 0 min 0,000 mm 5 W/m 13,0 C 15,1 C 9,7 km/h (2 Bft) 100 %
08.07.2014 06:10 15,1 C 15,1 C 15,1 C 87 % 1006,9 hPa 0,0 l/m 4,8 km/h (1 Bft) S-SO 157 0 min 0,000 mm 5 W/m 13,0 C 15,1 C 9,7 km/h (2 Bft) 99 %
08.07.2014 06:20 15,2 C 15,1 C 15,2 C 87 % 1007,0 hPa 0,0 l/m 4,8 km/h (1 Bft) S-SO 157 0 min 0,000 mm 5 W/m 13,0 C 15,2 C 9,7 km/h (2 Bft) 100 %
08.07.2014 06:30 15,2 C 15,2 C 15,2 C 87 % 1006,9 hPa 0,0 l/m 1,6 km/h (1 Bft) S-SO 157 0 min 0,000 mm 16 W/m 13,0 C 15,2 C 11,3 km/h (2 Bft) 100 %
08.07.2014 06:40 15,2 C 15,2 C 15,2 C 87 % 1006,8 hPa 0,0 l/m 3,2 km/h (1 Bft) S-SO 157 0 min 0,000 mm 25 W/m 13,0 C 15,2 C 9,7 km/h (2 Bft) 100 %
08.07.2014 06:50 15,3 C 15,2 C 15,3 C 87 % 1006,7 hPa 0,0 l/m 4,8 km/h (1 Bft) S 180 0 min 0,000 mm 26 W/m 13,1 C 15,3 C 16,1 km/h (3 Bft) 100 %
08.07.2014 07:00 15,2 C 15,2 C 15,3 C 87 % 1007,0 hPa 0,0 l/m 6,4 km/h (2 Bft) S-SW 202 0 min 0,025 mm 28 W/m 13,0 C 15,2 C 11,3 km/h (2 Bft) 100 %
08.07.2014 07:10 15,1 C 15,1 C 15,2 C 87 % 1007,1 hPa 0,0 l/m 4,8 km/h (1 Bft) S-SW 202 0 min 0,000 mm 23 W/m 13,0 C 15,1 C 9,7 km/h (2 Bft) 100 %
08.07.2014 07:20 15,1 C 15,1 C 15,1 C 87 % 1007,1 hPa 0,0 l/m 4,8 km/h (1 Bft) S-SW 202 0 min 0,000 mm 19 W/m 13,0 C 15,1 C 11,3 km/h (2 Bft) 100 %
08.07.2014 07:30 15,1 C 15,1 C 15,1 C 87 % 1007,0 hPa 0,0 l/m 4,8 km/h (1 Bft) S-SW 202 0 min 0,000 mm 35 W/m 13,0 C 15,1 C 11,3 km/h (2 Bft) 100 %
08.07.2014 07:40 15,1 C 15,1 C 15,1 C 87 % 1007,0 hPa 0,0 l/m 3,2 km/h (1 Bft) S-SO 157 0 min 0,000 mm 53 W/m 13,0 C 15,1 C 8,0 km/h (2 Bft) 100 %
08.07.2014 07:50 15,2 C 15,1 C 15,2 C 87 % 1006,9 hPa 0,0 l/m 3,2 km/h (1 Bft) S 180 0 min 0,000 mm 67 W/m 13,0 C 15,2 C 8,0 km/h (2 Bft) 100 %
08.07.2014 08:00 15,2 C 15,2 C 15,2 C 87 % 1006,9 hPa 0,0 l/m 3,2 km/h (1 Bft) S 180 0 min 0,025 mm 81 W/m 13,0 C 15,2 C 8,0 km/h (2 Bft) 100 %
08.07.2014 08:10 15,3 C 15,2 C 15,3 C 87 % 1006,9 hPa 0,0 l/m 6,4 km/h (2 Bft) S-SW 202 0 min 0,000 mm 47 W/m 13,1 C 15,3 C 12,9 km/h (3 Bft) 100 %
08.07.2014 08:20 15,4 C 15,3 C 15,4 C 87 % 1006,8 hPa 0,0 l/m 3,2 km/h (1 Bft) S-SW 202 0 min 0,000 mm 51 W/m 13,2 C 15,4 C 12,9 km/h (3 Bft) 90 %
08.07.2014 08:30 15,4 C 15,4 C 15,4 C 87 % 1006,9 hPa 0,0 l/m 3,2 km/h (1 Bft) SW 225 0 min 0,000 mm 47 W/m 13,2 C 15,4 C 12,9 km/h (3 Bft) 100 %
08.07.2014 08:40 15,4 C 15,4 C 15,4 C 87 % 1006,8 hPa 0,0 l/m 3,2 km/h (1 Bft) W-SW 247 0 min 0,000 mm 62 W/m 13,2 C 15,4 C 9,7 km/h (2 Bft) 100 %
08.07.2014 08:50 15,4 C 15,3 C 15,4 C 87 % 1006,8 hPa 0,0 l/m 1,6 km/h (1 Bft) W-SW 247 0 min 0,000 mm 86 W/m 13,2 C 15,4 C 9,7 km/h (2 Bft) 100 %
08.07.2014 09:00 15,6 C 15,4 C 15,6 C 87 % 1006,7 hPa 0,0 l/m 1,6 km/h (1 Bft) W-SW 247 0 min 0,025 mm 104 W/m 13,4 C 15,6 C 9,7 km/h (2 Bft) 100 %
08.07.2014 09:10 15,6 C 15,6 C 15,6 C 87 % 1006,8 hPa 0,0 l/m 1,6 km/h (1 Bft) SW 225 0 min 0,000 mm 69 W/m 13,4 C 15,6 C 8,0 km/h (2 Bft) 99 %
08.07.2014 09:20 15,7 C 15,6 C 15,7 C 87 % 1006,8 hPa 0,0 l/m 1,6 km/h (1 Bft) SW 225 0 min 0,000 mm 104 W/m 13,5 C 15,7 C 8,0 km/h (2 Bft) 100 %
08.07.2014 09:30 15,8 C 15,7 C 15,8 C 87 % 1006,8 hPa 0,0 l/m 3,2 km/h (1 Bft) SW 225 0 min 0,000 mm 123 W/m 13,6 C 15,8 C 12,9 km/h (3 Bft) 100 %
08.07.2014 09:40 15,8 C 15,8 C 15,8 C 87 % 1006,6 hPa 0,0 l/m 3,2 km/h (1 Bft) W-SW 247 0 min 0,000 mm 90 W/m 13,6 C 15,8 C 11,3 km/h (2 Bft) 100 %
08.07.2014 09:50 15,8 C 15,8 C 15,8 C 87 % 1006,7 hPa 0,0 l/m 1,6 km/h (1 Bft) W-SW 247 0 min 0,000 mm 37 W/m 13,6 C 15,8 C 11,3 km/h (2 Bft) 100 %
08.07.2014 10:00 15,6 C 15,6 C 15,8 C 87 % 1006,8 hPa 0,0 l/m 8,0 km/h (2 Bft) W-SW 247 0 min 0,051 mm 35 W/m 13,4 C 14,7 C 27,4 km/h (4 Bft) 100 %
08.07.2014 10:10 15,6 C 15,6 C 15,8 C 87 % 1006,8 hPa 0,0 l/m 11,6 km/h (2 Bft) S-SW 213 0 min 0,000 mm 23 W/m 13,4 C 13,1 C 30,6 km/h (5 Bft) 97 %
08.07.2014 10:20 15,3 C 15,3 C 15,6 C 87 % 1006,8 hPa 0,0 l/m 14,3 km/h (3 Bft) S-SW 213 0 min 0,000 mm 28 W/m 13,1 C 11,8 C 27,4 km/h (4 Bft) 98 %
08.07.2014 10:30 15,1 C 15,1 C 15,3 C 87 % 1006,7 hPa 0,0 l/m 10,1 km/h (2 Bft) W-SW 251 0 min 0,000 mm 37 W/m 13,0 C 13,2 C 25,7 km/h (4 Bft) 97 %
08.07.2014 10:40 15,1 C 15,1 C 15,1 C 87 % 1006,8 hPa 0,0 l/m 10,4 km/h (2 Bft) W-SW 258 0 min 0,000 mm 62 W/m 13,0 C 13,1 C 24,1 km/h (4 Bft) 98 %
08.07.2014 10:50 14,9 C 14,9 C 15,1 C 87 % 1006,9 hPa 0,0 l/m 7,5 km/h (2 Bft) S-SW 192 0 min 0,000 mm 49 W/m 12,8 C 14,3 C 19,3 km/h (3 Bft) 97 %
08.07.2014 11:00 14,7 C 14,7 C 14,9 C 87 % 1007,0 hPa 0,0 l/m 11,3 km/h (2 Bft) S-SW 208 0 min 0,027 mm 53 W/m 12,6 C 12,2 C 24,1 km/h (4 Bft) 97 %
08.07.2014 11:10 14,5 C 14,5 C 14,7 C 87 % 1007,1 hPa 0,0 l/m 14,0 km/h (3 Bft) W-SW 240 0 min 0,000 mm 86 W/m 12,4 C 10,9 C 30,6 km/h (5 Bft) 98 %
08.07.2014 11:20 14,3 C 14,3 C 14,5 C 87 % 1007,1 hPa 0,0 l/m 14,3 km/h (3 Bft) W 261 0 min 0,000 mm 100 W/m 12,2 C 10,6 C 29,0 km/h (5 Bft) 97 %
08.07.2014 11:30 14,3 C 14,3 C 14,3 C 87 % 1007,3 hPa 0,0 l/m 12,1 km/h (2 Bft) W 271 0 min 0,000 mm 86 W/m 12,2 C 11,4 C 27,4 km/h (4 Bft) 97 %
08.07.2014 11:40 14,3 C 14,2 C 14,3 C 87 % 1007,3 hPa 0,0 l/m 13,9 km/h (3 Bft) S-SW 207 0 min 0,000 mm 93 W/m 12,2 C 10,7 C 27,4 km/h (4 Bft) 97 %
08.07.2014 11:50 14,3 C 14,3 C 14,3 C 87 % 1007,3 hPa 0,0 l/m 9,3 km/h (2 Bft) NW 316 0 min 0,000 mm 58 W/m 12,2 C 12,7 C 27,4 km/h (4 Bft) 97 %
08.07.2014 12:00 14,3 C 14,3 C 14,3 C 87 % 1007,5 hPa 0,0 l/m 9,2 km/h (2 Bft) S-SW 211 0 min 0,051 mm 72 W/m 12,2 C 12,7 C 24,1 km/h (4 Bft) 97 %
08.07.2014 12:10 14,2 C 14,2 C 14,3 C 88 % 1007,6 hPa 0,2 l/m 11,3 km/h (2 Bft) W-SW 245 0 min 0,000 mm 84 W/m 12,2 C 11,6 C 25,7 km/h (4 Bft) 97 %
08.07.2014 12:20 14,2 C 14,2 C 14,2 C 88 % 1007,5 hPa 0,0 l/m 10,5 km/h (2 Bft) SW 223 0 min 0,000 mm 116 W/m 12,2 C 12,0 C 22,5 km/h (4 Bft) 98 %
08.07.2014 12:30 14,4 C 14,2 C 14,4 C 88 % 1007,7 hPa 0,2 l/m 10,2 km/h (2 Bft) SW 218 10 min 0,000 mm 158 W/m 12,4 C 12,4 C 20,9 km/h (4 Bft) 97 %
08.07.2014 12:40 14,4 C 14,4 C 14,5 C 88 % 1007,8 hPa 0,2 l/m 9,1 km/h (2 Bft) SW 230 0 min 0,000 mm 70 W/m 12,4 C 12,9 C 22,5 km/h (4 Bft) 97 %
08.07.2014 12:50 14,4 C 14,4 C 14,5 C 88 % 1007,8 hPa 0,2 l/m 12,1 km/h (2 Bft) S-SW 198 0 min 0,000 mm 90 W/m 12,4 C 11,5 C 32,2 km/h (5 Bft) 98 %
08.07.2014 13:00 14,3 C 14,3 C 14,4 C 88 % 1007,8 hPa 0,0 l/m 14,8 km/h (3 Bft) SW 214 0 min 0,076 mm 83 W/m 12,3 C 10,4 C 29,0 km/h (5 Bft) 97 %
08.07.2014 13:10 14,3 C 14,3 C 14,3 C 87 % 1007,8 hPa 0,2 l/m 12,6 km/h (3 Bft) S-SW 209 0 min 0,000 mm 102 W/m 12,2 C 11,2 C 25,7 km/h (4 Bft) 98 %
08.07.2014 13:20 14,4 C 14,3 C 14,4 C 88 % 1007,8 hPa 0,0 l/m 7,7 km/h (2 Bft) W-SW 257 0 min 0,000 mm 69 W/m 12,4 C 13,6 C 25,7 km/h (4 Bft) 97 %
08.07.2014 13:30 14,3 C 14,3 C 14,4 C 88 % 1007,8 hPa 0,0 l/m 10,3 km/h (2 Bft) SW 217 0 min 0,000 mm 84 W/m 12,3 C 12,2 C 20,9 km/h (4 Bft) 98 %
08.07.2014 13:40 14,4 C 14,3 C 14,4 C 88 % 1007,8 hPa 0,2 l/m 7,9 km/h (2 Bft) S-SW 213 0 min 0,000 mm 116 W/m 12,4 C 13,5 C 19,3 km/h (3 Bft) 98 %
08.07.2014 13:50 14,4 C 14,4 C 14,4 C 88 % 1007,8 hPa 0,2 l/m 10,7 km/h (2 Bft) SW 226 0 min 0,000 mm 120 W/m 12,4 C 12,1 C 20,9 km/h (4 Bft) 98 %
08.07.2014 14:00 14,4 C 14,4 C 14,4 C 88 % 1007,8 hPa 0,2 l/m 8,2 km/h (2 Bft) SW 224 0 min 0,076 mm 142 W/m 12,4 C 13,4 C 19,3 km/h (3 Bft) 98 %
08.07.2014 14:10 14,5 C 14,4 C 14,5 C 88 % 1007,7 hPa 0,2 l/m 9,0 km/h (2 Bft) SW 221 0 min 0,000 mm 113 W/m 12,5 C 13,1 C 20,9 km/h (4 Bft) 98 %
08.07.2014 14:20 14,6 C 14,5 C 14,6 C 88 % 1007,7 hPa 0,2 l/m 9,3 km/h (2 Bft) SW 224 0 min 0,000 mm 127 W/m 12,6 C 13,0 C 24,1 km/h (4 Bft) 98 %
08.07.2014 14:30 14,6 C 14,5 C 14,6 C 87 % 1007,6 hPa 0,0 l/m 8,9 km/h (2 Bft) SW 219 0 min 0,000 mm 123 W/m 12,5 C 13,2 C 24,1 km/h (4 Bft) 97 %
08.07.2014 14:40 14,6 C 14,6 C 14,6 C 87 % 1007,5 hPa 0,0 l/m 9,2 km/h (2 Bft) W-SW 254 0 min 0,000 mm 120 W/m 12,5 C 13,1 C 24,1 km/h (4 Bft) 98 %
08.07.2014 14:50 14,6 C 14,6 C 14,6 C 88 % 1007,4 hPa 0,0 l/m 10,9 km/h (2 Bft) W-SW 243 0 min 0,000 mm 105 W/m 12,6 C 12,3 C 25,7 km/h (4 Bft) 97 %
08.07.2014 15:00 14,6 C 14,6 C 14,6 C 88 % 1007,3 hPa 0,0 l/m 11,1 km/h (2 Bft) S-SW 199 0 min 0,077 mm 90 W/m 12,6 C 12,2 C 29,0 km/h (5 Bft) 98 %
08.07.2014 15:10 14,5 C 14,5 C 14,6 C 88 % 1007,4 hPa 0,0 l/m 13,3 km/h (3 Bft) S-SW 210 0 min 0,000 mm 65 W/m 12,5 C 11,2 C 25,7 km/h (4 Bft) 97 %
08.07.2014 15:20 14,4 C 14,4 C 14,5 C 88 % 1007,3 hPa 0,0 l/m 13,2 km/h (3 Bft) W-SW 246 0 min 0,000 mm 63 W/m 12,4 C 11,1 C 27,4 km/h (4 Bft) 97 %
08.07.2014 15:30 14,4 C 14,4 C 14,4 C 88 % 1007,3 hPa 0,0 l/m 10,4 km/h (2 Bft) W 273 0 min 0,000 mm 62 W/m 12,4 C 12,3 C 27,4 km/h (4 Bft) 98 %
08.07.2014 15:40 14,3 C 14,3 C 14,4 C 88 % 1007,5 hPa 0,0 l/m 12,7 km/h (3 Bft) W 266 0 min 0,000 mm 62 W/m 12,3 C 11,2 C 33,8 km/h (5 Bft) 97 %
08.07.2014 15:50 14,2 C 14,2 C 14,3 C 88 % 1007,5 hPa 0,0 l/m 13,8 km/h (3 Bft) W-SW 248 0 min 0,000 mm 46 W/m 12,2 C 10,6 C 27,4 km/h (4 Bft) 98 %
08.07.2014 16:00 14,2 C 14,2 C 14,2 C 88 % 1007,6 hPa 0,0 l/m 11,3 km/h (2 Bft) W 274 0 min 0,050 mm 58 W/m 12,2 C 11,6 C 30,6 km/h (5 Bft) 97 %
08.07.2014 16:10 14,2 C 14,2 C 14,2 C 88 % 1007,6 hPa 0,0 l/m 14,4 km/h (3 Bft) W 261 0 min 0,000 mm 44 W/m 12,2 C 10,4 C 32,2 km/h (5 Bft) 91 %
08.07.2014 16:20 14,1 C 14,1 C 14,2 C 88 % 1007,7 hPa 0,0 l/m 11,0 km/h (2 Bft) W-SW 254 0 min 0,000 mm 35 W/m 12,1 C 11,7 C 24,1 km/h (4 Bft) 96 %
08.07.2014 16:30 14,1 C 14,1 C 14,1 C 88 % 1007,6 hPa 0,0 l/m 12,6 km/h (3 Bft) W-SW 251 0 min 0,000 mm 33 W/m 12,1 C 11,0 C 27,4 km/h (4 Bft) 97 %
08.07.2014 16:40 14,0 C 14,0 C 14,1 C 88 % 1007,8 hPa 0,2 l/m 9,3 km/h (2 Bft) W-SW 257 0 min 0,000 mm 30 W/m 12,0 C 12,4 C 20,9 km/h (4 Bft) 99 %
08.07.2014 16:50 14,0 C 14,0 C 14,0 C 88 % 1007,8 hPa 0,0 l/m 10,6 km/h (2 Bft) W-SW 257 0 min 0,000 mm 53 W/m 12,0 C 11,7 C 29,0 km/h (5 Bft) 98 %
08.07.2014 17:00 14,0 C 14,0 C 14,0 C 88 % 1007,9 hPa 0,0 l/m 8,3 km/h (2 Bft) W-SW 247 0 min 0,026 mm 35 W/m 12,0 C 12,9 C 24,1 km/h (4 Bft) 100 %
08.07.2014 17:10 14,0 C 14,0 C 14,0 C 88 % 1007,8 hPa 0,0 l/m 7,3 km/h (2 Bft) W 267 0 min 0,000 mm 39 W/m 12,0 C 13,5 C 22,5 km/h (4 Bft) 100 %
08.07.2014 17:20 14,0 C 13,9 C 14,0 C 88 % 1007,8 hPa 0,2 l/m 7,8 km/h (2 Bft) W-SW 249 0 min 0,000 mm 28 W/m 12,0 C 13,2 C 20,9 km/h (4 Bft) 100 %
08.07.2014 17:30 13,9 C 13,9 C 14,0 C 88 % 1007,7 hPa 0,0 l/m 8,2 km/h (2 Bft) W-SW 255 0 min 0,000 mm 37 W/m 11,9 C 12,8 C 19,3 km/h (3 Bft) 100 %
08.07.2014 17:40 13,9 C 13,8 C 13,9 C 88 % 1007,8 hPa 0,0 l/m 9,7 km/h (2 Bft) W-SW 251 0 min 0,000 mm 23 W/m 11,9 C 12,0 C 22,5 km/h (4 Bft) 100 %
08.07.2014 17:50 13,8 C 13,8 C 13,9 C 88 % 1007,9 hPa 0,2 l/m 10,2 km/h (2 Bft) NW 319 0 min 0,000 mm 14 W/m 11,8 C 11,7 C 24,1 km/h (4 Bft) 100 %
08.07.2014 18:00 13,8 C 13,8 C 13,8 C 88 % 1008,1 hPa 0,2 l/m 8,3 km/h (2 Bft) W-SW 246 0 min 0,025 mm 21 W/m 11,8 C 12,7 C 20,9 km/h (4 Bft) 100 %
08.07.2014 18:10 13,7 C 13,7 C 13,8 C 88 % 1008,0 hPa 0,2 l/m 11,5 km/h (2 Bft) SW 222 0 min 0,000 mm 40 W/m 11,7 C 11,0 C 30,6 km/h (5 Bft) 100 %
08.07.2014 18:20 13,7 C 13,7 C 13,8 C 88 % 1008,0 hPa 0,2 l/m 10,5 km/h (2 Bft) W-SW 256 0 min 0,000 mm 42 W/m 11,7 C 11,4 C 35,4 km/h (5 Bft) 99 %
08.07.2014 18:30 13,7 C 13,7 C 13,8 C 88 % 1008,0 hPa 0,2 l/m 10,1 km/h (2 Bft) SW 219 0 min 0,000 mm 35 W/m 11,7 C 11,6 C 24,1 km/h (4 Bft) 99 %
08.07.2014 18:40 13,7 C 13,7 C 13,7 C 88 % 1008,0 hPa 0,2 l/m 12,2 km/h (2 Bft) W-SW 257 0 min 0,000 mm 28 W/m 11,7 C 10,7 C 27,4 km/h (4 Bft) 91 %
08.07.2014 18:50 13,7 C 13,7 C 13,7 C 88 % 1008,2 hPa 0,0 l/m 8,4 km/h (2 Bft) W-SW 249 0 min 0,000 mm 19 W/m 11,7 C 12,5 C 24,1 km/h (4 Bft) 100 %
08.07.2014 19:00 13,7 C 13,7 C 13,7 C 88 % 1008,2 hPa 0,0 l/m 8,1 km/h (2 Bft) W 267 0 min 0,026 mm 12 W/m 11,7 C 12,7 C 24,1 km/h (4 Bft) 100 %
08.07.2014 19:10 13,7 C 13,7 C 13,7 C 88 % 1008,3 hPa 0,2 l/m 9,2 km/h (2 Bft) S-SW 213 0 min 0,000 mm 12 W/m 11,7 C 12,1 C 27,4 km/h (4 Bft) 100 %
08.07.2014 19:20 13,7 C 13,7 C 13,7 C 88 % 1008,3 hPa 0,2 l/m 10,0 km/h (2 Bft) W-SW 251 0 min 0,000 mm 16 W/m 11,7 C 11,7 C 24,1 km/h (4 Bft) 100 %
08.07.2014 19:30 13,6 C 13,6 C 13,7 C 88 % 1008,3 hPa 0,0 l/m 11,6 km/h (2 Bft) SW 224 0 min 0,000 mm 12 W/m 11,6 C 10,8 C 29,0 km/h (5 Bft) 100 %
08.07.2014 19:40 13,7 C 13,6 C 13,7 C 88 % 1008,4 hPa 0,4 l/m 8,9 km/h (2 Bft) SW 219 0 min 0,000 mm 11 W/m 11,7 C 12,2 C 19,3 km/h (3 Bft) 100 %
08.07.2014 19:50 13,7 C 13,6 C 13,7 C 88 % 1008,4 hPa 0,4 l/m 10,1 km/h (2 Bft) SW 234 0 min 0,000 mm 16 W/m 11,7 C 11,6 C 25,7 km/h (4 Bft) 100 %
08.07.2014 20:00 13,6 C 13,6 C 13,7 C 88 % 1008,3 hPa 0,4 l/m 7,0 km/h (2 Bft) SW 223 0 min 0,025 mm 9 W/m 11,6 C 13,2 C 20,9 km/h (4 Bft) 100 %
08.07.2014 20:10 13,6 C 13,6 C 13,6 C 88 % 1008,3 hPa 0,4 l/m 8,4 km/h (2 Bft) SW 235 0 min 0,000 mm 7 W/m 11,6 C 12,4 C 22,5 km/h (4 Bft) 100 %
08.07.2014 20:20 13,6 C 13,6 C 13,6 C 88 % 1008,3 hPa 0,4 l/m 11,0 km/h (2 Bft) SW 231 0 min 0,000 mm 9 W/m 11,6 C 11,1 C 25,7 km/h (4 Bft) 100 %
08.07.2014 20:30 13,6 C 13,6 C 13,6 C 87 % 1008,2 hPa 0,4 l/m 11,1 km/h (2 Bft) SW 227 0 min 0,000 mm 0 W/m 11,5 C 11,1 C 25,7 km/h (4 Bft) 100 %
08.07.2014 20:40 13,6 C 13,5 C 13,6 C 87 % 1008,2 hPa 0,2 l/m 9,1 km/h (2 Bft) SW 234 0 min 0,000 mm 7 W/m 11,5 C 12,0 C 25,7 km/h (4 Bft) 100 %
08.07.2014 20:50 13,5 C 13,5 C 13,6 C 87 % 1008,3 hPa 0,2 l/m 7,3 km/h (2 Bft) W-SW 242 0 min 0,000 mm 0 W/m 11,4 C 12,9 C 17,7 km/h (3 Bft) 100 %
08.07.2014 21:00 13,5 C 13,5 C 13,5 C 87 % 1008,3 hPa 0,2 l/m 8,8 km/h (2 Bft) W-SW 248 0 min 0,025 mm 0 W/m 11,4 C 12,1 C 20,9 km/h (4 Bft) 100 %
08.07.2014 21:10 13,5 C 13,5 C 13,5 C 87 % 1008,3 hPa 0,2 l/m 9,7 km/h (2 Bft) SW 225 0 min 0,000 mm 0 W/m 11,4 C 11,6 C 24,1 km/h (4 Bft) 100 %
08.07.2014 21:20 13,5 C 13,5 C 13,5 C 87 % 1008,3 hPa 0,0 l/m 8,0 km/h (2 Bft) W-SW 247 0 min 0,000 mm 0 W/m 11,4 C 12,5 C 24,1 km/h (4 Bft) 100 %
08.07.2014 21:30 13,5 C 13,4 C 13,5 C 87 % 1008,4 hPa 0,0 l/m 8,0 km/h (2 Bft) W-SW 247 0 min 0,000 mm 0 W/m 11,4 C 12,5 C 19,3 km/h (3 Bft) 100 %
08.07.2014 21:40 13,4 C 13,4 C 13,5 C 88 % 1008,8 hPa 0,0 l/m 9,7 km/h (2 Bft) W-SW 247 0 min 0,000 mm 0 W/m 11,5 C 11,5 C 24,1 km/h (4 Bft) 100 %
08.07.2014 21:50 13,4 C 13,4 C 13,4 C 88 % 1008,7 hPa 0,2 l/m 11,3 km/h (2 Bft) W-SW 247 0 min 0,000 mm 0 W/m 11,5 C 10,7 C 20,9 km/h (4 Bft) 100 %
08.07.2014 22:00 13,4 C 13,4 C 13,4 C 88 % 1008,7 hPa 0,4 l/m 8,0 km/h (2 Bft) W-SW 247 0 min 0,025 mm 0 W/m 11,5 C 12,4 C 19,3 km/h (3 Bft) 100 %
08.07.2014 22:10 13,3 C 13,3 C 13,4 C 88 % 1008,5 hPa 0,2 l/m 6,4 km/h (2 Bft) W-SW 247 0 min 0,000 mm 0 W/m 11,4 C 13,3 C 17,7 km/h (3 Bft) 100 %
08.07.2014 22:20 13,3 C 13,3 C 13,3 C 88 % 1008,5 hPa 0,4 l/m 11,3 km/h (2 Bft) W-SW 247 0 min 0,000 mm 0 W/m 11,4 C 10,6 C 27,4 km/h (4 Bft) 100 %
08.07.2014 22:30 13,2 C 13,2 C 13,3 C 88 % 1008,4 hPa 0,0 l/m 14,5 km/h (3 Bft) W-SW 247 0 min 0,000 mm 0 W/m 11,3 C 9,2 C 29,0 km/h (5 Bft) 100 %
08.07.2014 22:40 13,1 C 13,1 C 13,2 C 88 % 1008,3 hPa 0,0 l/m 11,3 km/h (2 Bft) W 270 0 min 0,000 mm 0 W/m 11,2 C 10,4 C 24,1 km/h (4 Bft) 100 %
08.07.2014 22:50 13,2 C 13,1 C 13,2 C 87 % 1008,3 hPa 0,2 l/m 8,0 km/h (2 Bft) W 270 0 min 0,000 mm 0 W/m 11,1 C 12,2 C 17,7 km/h (3 Bft) 100 %
08.07.2014 23:00 13,2 C 13,1 C 13,2 C 87 % 1008,2 hPa 0,0 l/m 6,4 km/h (2 Bft) W 270 0 min 0,025 mm 0 W/m 11,1 C 13,2 C 24,1 km/h (4 Bft) 100 %
08.07.2014 23:10 13,1 C 13,1 C 13,2 C 88 % 1008,4 hPa 0,0 l/m 8,0 km/h (2 Bft) W 270 0 min 0,000 mm 0 W/m 11,2 C 12,1 C 22,5 km/h (4 Bft) 100 %
08.07.2014 23:20 13,0 C 13,0 C 13,1 C 88 % 1008,4 hPa 0,0 l/m 8,0 km/h (2 Bft) W 270 0 min 0,000 mm 0 W/m 11,1 C 12,0 C 20,9 km/h (4 Bft) 100 %
08.07.2014 23:30 12,9 C 12,9 C 13,1 C 88 % 1008,5 hPa 0,2 l/m 6,4 km/h (2 Bft) W 270 0 min 0,000 mm 0 W/m 11,0 C 12,9 C 20,9 km/h (4 Bft) 100 %
08.07.2014 23:40 12,9 C 12,9 C 12,9 C 88 % 1008,6 hPa 0,0 l/m 8,0 km/h (2 Bft) W 270 0 min 0,000 mm 0 W/m 11,0 C 11,9 C 19,3 km/h (3 Bft) 100 %
08.07.2014 23:50 12,8 C 12,8 C 12,9 C 88 % 1008,6 hPa 0,2 l/m 9,7 km/h (2 Bft) W-SW 247 0 min 0,000 mm 0 W/m 10,9 C 10,8 C 19,3 km/h (3 Bft) 100 %
_ Min-Zeit 23:50 23:50 23:40 00:00 09:40 - 00:20 - - - - - 23:50 22:30 01:10 08:20
Minimum _ 12,8 C 12,8 C 12,9 C 86 % 1006,6 hPa - 0,0 km/h (0 Bft) - - - - - 10,9 C 9,2 C 0,0 km/h (0 Bft) 90 %
_ Max-Zeit 00:00 09:40 00:00 12:10 00:00 01:30 13:00 - - 12:30 15:00 12:30 09:30 09:30 18:20 00:30
Maximum _ 15,9 C 15,8 C 15,9 C 88 % 1011,1 hPa 1,2 l/m 14,8 km/h
SW (3 Bft)
- - 10 min 0,077 mm 158 W/m 13,6 C 15,8 C 35,4 km/h
W-SW (5 Bft)
100 %
Durchschnitt _ 14,5 C 14,5 C 14,6 C 87 % 1007,9 hPa #18,4 l/m 6,8 km/h (2 Bft) W-SW - #10 min. #0,710 mm 56 W/m 12,5 C 13,4 C 17,2 km/h (3 Bft) 99 %
PRIVATE WETTERSTATION BILLIGHEIM-ALLFELD - www.neckar-odenwald-wetter.de - Holger Sonntag